Weather History for Riverside, CA

Change the Weather History Date:

Tuesday, January 22, 2013

  Actual Average Record
Temperature  
Mean Temperature 63 °F 55 °F  
Max Temperature 83 °F 67 °F 85 °F (1994)
Min Temperature 42 °F 44 °F 21 °F (1937)
Degree Days  
Heating Degree Days 2 10  
Month to date heating degree days 250 224  
Since 1 July heating degree days 693 750  
Cooling Degree Days 0 0  
Month to date cooling degree days 0 0  
Year to date cooling degree days 0 0  
Growing Degree Days 12 (Base 50)    
Moisture  
Dew Point 15 °F    
Average Humidity 22    
Maximum Humidity 37    
Minimum Humidity 6    
Precipitation  
Precipitation 0.00 in 0.10 in 1.32 in (2010)
Month to date precipitation 0.03 2.42  
Year to date precipitation 0.03 2.42  
Since 1 July precipitation 1.94 5.63  
Snow  
Snow 0.00 in - - ()
Month to date snowfall 0.0  
Year to date snowfall 0.0  
Since 1 July snowfall 0.0  
Snow Depth 0.00 in    
Sea Level Pressure  
Sea Level Pressure 30.05 in    
Wind  
Wind Speed 4 mph (ENE)    
Max Wind Speed 10 mph    
Max Gust Speed 14 mph    
Visibility 10 miles    
Events      
T = Trace of Precipitation, MM = Missing Value Source: NWS Daily Summary

Daily Weather History Graph

Daily Weather History Graph

Search for Another Location

Airport:

Trip Planner

Search our weather history database for the weather conditions in past years. The results will help you decide how hot, cold, wet, or windy it might be!

Date:

Astronomy

Jan. 22, 2013 Rise Set
Actual Time 6:52 AM PST 5:10 PM PST
Civil Twilight 6:25 AM PST 5:37 PM PST
Nautical Twilight 5:55 AM PST 6:08 PM PST
Astronomical Twilight 5:25 AM PST 6:37 PM PST
Moon 1:39 PM PST (1/22) 3:16 AM PST (1/22)
Length of Visible Light 11h 12m
Length of Day
10h 18m
Waxing Gibbous, 83% of the Moon is Illuminated
Jan 22
Waxing Gibbous
Jan 26
Full
Feb 3
Last Quarter
Feb 9
New
Feb 17
First Quarter

Hourly Weather History & Observations

Time (PST) Temp. Windchill Dew Point Humidity Pressure Visibility Wind Dir Wind Speed Gust Speed Precip Events Conditions
12:53 AM 54.0 °F - 12.9 °F 20% 30.06 in 10.0 mi ENE 4.6 mph - N/A   Clear
1:53 AM 51.1 °F - 16.0 °F 25% 30.06 in 10.0 mi NE 4.6 mph - N/A   Clear
2:53 AM 48.0 °F - 17.1 °F 29% 30.06 in 10.0 mi NE 5.8 mph - N/A   Clear
3:53 AM 48.0 °F - 18.0 °F 30% 30.05 in 10.0 mi NE 9.2 mph - N/A   Clear
4:53 AM 44.1 °F 40.8 °F 19.0 °F 37% 30.06 in 10.0 mi East 5.8 mph - N/A   Clear
5:53 AM 45.0 °F 41.8 °F 18.0 °F 34% 30.07 in 10.0 mi ENE 5.8 mph - N/A   Clear
6:53 AM 45.0 °F 40.6 °F 18.0 °F 34% 30.09 in 10.0 mi NNE 8.1 mph - N/A   Clear
7:53 AM 50.0 °F - 16.0 °F 26% 30.09 in 10.0 mi ENE 4.6 mph - N/A   Clear
8:53 AM 59.0 °F - 19.0 °F 21% 30.09 in 10.0 mi ENE 3.5 mph - N/A   Clear
9:53 AM 68.0 °F - 19.0 °F 15% 30.10 in 10.0 mi Calm Calm - N/A   Clear
10:53 AM 75.0 °F - 6.1 °F 7% 30.08 in 10.0 mi ENE 3.5 mph - N/A   Clear
11:53 AM 77.0 °F - 6.1 °F 7% 30.04 in 10.0 mi Calm Calm - N/A   Clear
12:53 PM 80.1 °F - 7.0 °F 6% 30.00 in 10.0 mi North 3.5 mph - N/A   Mostly Cloudy
1:53 PM 81.0 °F - 9.0 °F 6% 29.99 in 10.0 mi Calm Calm - N/A   Mostly Cloudy
2:53 PM 81.0 °F - 8.1 °F 6% 29.99 in 10.0 mi Calm Calm - N/A   Mostly Cloudy
3:53 PM 79.0 °F - 9.0 °F 7% 29.99 in 10.0 mi Calm Calm - N/A   Mostly Cloudy
4:53 PM 73.0 °F - 14.0 °F 11% 30.00 in 10.0 mi Calm Calm - N/A   Mostly Cloudy
5:53 PM 70.0 °F - 16.0 °F 13% 30.02 in 10.0 mi South 4.6 mph - N/A   Mostly Cloudy
6:53 PM 69.1 °F - 17.1 °F 14% 30.04 in 10.0 mi Calm Calm - N/A   Clear
7:53 PM 64.0 °F - 19.9 °F 18% 30.05 in 10.0 mi NE 3.5 mph - N/A   Clear
8:53 PM 61.0 °F - 19.9 °F 21% 30.06 in 10.0 mi NE 4.6 mph - N/A   Clear
9:53 PM 59.0 °F - 21.0 °F 23% 30.06 in 10.0 mi Calm Calm - N/A   Clear
10:53 PM 57.9 °F - 19.9 °F 23% 30.07 in 10.0 mi ENE 3.5 mph - N/A   Clear
11:53 PM 54.0 °F - 24.1 °F 31% 30.06 in 10.0 mi ENE 5.8 mph - N/A   Clear